• In Deutschland
  • Länderverzeichnis
  • Für 7 Tage
  • Wassertemperatur
  • Satellitenkarten
  • Wetterkarte
  • Widgets
  • user-avatar
    Anmelden

    Stündliche Wetter Lenzkirch

    Heute, 16 Dezember, Samstag

    Zeit Temperatur Niederschläge Wind Luftdruck Luftfeuchtigkeit
    00:00 -2°C° 0,1 mm 1 m/S 669 mmHg 89%
    01:00 -2°C° 0 mm 1 m/S 669 mmHg 88%
    02:00 -2°C° 0,2 mm 1 m/S 670 mmHg 90%
    03:00 -2°C° 0,2 mm 1 m/S 670 mmHg 91%
    04:00 -2°C° 0,2 mm 1 m/S 670 mmHg 93%
    05:00 -2°C° 0,2 mm 1 m/S 671 mmHg 93%
    06:00 -2°C° 0,2 mm 1 m/S 671 mmHg 94%
    07:00 -2°C° 0 mm 1 m/S 672 mmHg 94%
    08:00 -1°C° 0,2 mm 1 m/S 673 mmHg 93%
    09:00 -3°C° 0,2 mm 2 m/S 673 mmHg 92%
    10:00 -3°C° 0,2 mm 2 m/S 674 mmHg 91%
    11:00 -2°C° 0,4 mm 2 m/S 675 mmHg 90%
    12:00 -2°C° 0,4 mm 3 m/S 675 mmHg 88%
    13:00 -2°C° 0 mm 3 m/S 676 mmHg 87%
    14:00 -2°C° 0,3 mm 3 m/S 676 mmHg 87%
    15:00 -4°C° 0,3 mm 3 m/S 677 mmHg 88%
    16:00 -3°C° 0,3 mm 2 m/S 677 mmHg 88%
    17:00 -3°C° 0,1 mm 2 m/S 678 mmHg 90%
    18:00 -4°C° 0,1 mm 2 m/S 678 mmHg 91%
    19:00 -4°C° 0,1 mm 2 m/S 679 mmHg 93%
    20:00 -4°C° 0,2 mm 2 m/S 679 mmHg 93%
    21:00 -4°C° 0,2 mm 2 m/S 680 mmHg 94%
    22:00 -4°C° 0,2 mm 2 m/S 681 mmHg 94%
    23:00 -2°C° 0,3 mm 1 m/S 681 mmHg 94%

    Morgen, 17 Dezember, Sonntag

    Zeit Temperatur Niederschläge Wind Luftdruck Luftfeuchtigkeit
    00:00 -2°C° 0,3 mm 1 m/S 681 mmHg 95%
    01:00 -3°C° 0,3 mm 1 m/S 681 mmHg 95%
    02:00 -5°C° 0,2 mm 2 m/S 682 mmHg 95%
    03:00 -5°C° 0,2 mm 2 m/S 682 mmHg 95%
    04:00 -5°C° 0,2 mm 2 m/S 682 mmHg 95%
    05:00 -5°C° 0,1 mm 2 m/S 682 mmHg 94%
    06:00 -5°C° 0,1 mm 2 m/S 682 mmHg 94%
    07:00 -6°C° 0,1 mm 2 m/S 683 mmHg 93%
    08:00 -5°C° 0 mm 2 m/S 683 mmHg 92%
    09:00 -5°C° 0 mm 2 m/S 684 mmHg 90%
    10:00 -5°C° 0 mm 2 m/S 684 mmHg 89%
    11:00 -5°C° 0 mm 2 m/S 684 mmHg 86%
    12:00 -4°C° 0 mm 2 m/S 684 mmHg 83%
    13:00 -3°C° 0 mm 2 m/S 685 mmHg 80%
    14:00 -4°C° 0 mm 2 m/S 685 mmHg 83%
    15:00 -2°C° 0 mm 1 m/S 685 mmHg 85%
    16:00 -3°C° 0 mm 1 m/S 685 mmHg 87%
    17:00 -3°C° 0 mm 1 m/S 685 mmHg 88%
    18:00 -4°C° 0 mm 1 m/S 686 mmHg 89%
    19:00 -6°C° 0 mm 1 m/S 686 mmHg 91%
    20:00 -6°C° 0 mm 1 m/S 686 mmHg 91%
    21:00 -6°C° 0 mm 1 m/S 686 mmHg 91%
    22:00 -6°C° 0 mm 1 m/S 687 mmHg 92%
    23:00 -7°C° 0 mm 1 m/S 687 mmHg 92%

    übermorgen, 18 Dezember, Montag

    Zeit Temperatur Niederschläge Wind Luftdruck Luftfeuchtigkeit
    00:00 -7°C° 0 mm 1 m/S 687 mmHg 91%
    01:00 -8°C° 0 mm 2 m/S 687 mmHg 91%
    02:00 -7°C° 0 mm 2 m/S 686 mmHg 90%
    03:00 -7°C° 0 mm 2 m/S 686 mmHg 89%
    04:00 -7°C° 0 mm 3 m/S 686 mmHg 87%
    05:00 -7°C° 0,2 mm 3 m/S 685 mmHg 86%
    06:00 -7°C° 0,2 mm 3 m/S 685 mmHg 85%
    07:00 -8°C° 0,2 mm 4 m/S 684 mmHg 85%
    08:00 -7°C° 1,1 mm 4 m/S 684 mmHg 87%
    09:00 -7°C° 1,1 mm 4 m/S 683 mmHg 89%
    10:00 -5°C° 1,1 mm 3 m/S 683 mmHg 92%
    11:00 -5°C° 0,6 mm 3 m/S 683 mmHg 92%
    12:00 -4°C° 0,6 mm 3 m/S 682 mmHg 93%
    13:00 -2°C° 0,6 mm 2 m/S 682 mmHg 93%
    14:00 -2°C° 0,2 mm 2 m/S 683 mmHg 94%
    15:00 -2°C° 0,2 mm 2 m/S 683 mmHg 95%
    16:00 -2°C° 0,2 mm 2 m/S 683 mmHg 96%
    17:00 -3°C° 0,1 mm 2 m/S 684 mmHg 96%
    18:00 -3°C° 0,1 mm 2 m/S 684 mmHg 95%
    19:00 -2°C° 0,1 mm 1 m/S 685 mmHg 95%
    20:00 -2°C° 0 mm 1 m/S 685 mmHg 95%
    21:00 -2°C° 0 mm 1 m/S 686 mmHg 95%
    22:00 -2°C° 0 mm 1 m/S 687 mmHg 95%
    23:00 -3°C° 0 mm 1 m/S 687 mmHg 95%

    19 Dezember, Dienstag

    Zeit Temperatur Niederschläge Wind Luftdruck Luftfeuchtigkeit
    00:00 -3°C° 0 mm 1 m/S 687 mmHg 95%
    01:00 -4°C° 0 mm 0 m/S 688 mmHg 95%
    02:00 -4°C° 0 mm 0 m/S 688 mmHg 95%
    03:00 -5°C° 0 mm 0 m/S 688 mmHg 95%
    04:00 -5°C° 0 mm 0 m/S 688 mmHg 95%
    05:00 -5°C° 0 mm 0 m/S 689 mmHg 95%
    06:00 -5°C° 0 mm 0 m/S 689 mmHg 94%
    07:00 -5°C° 0 mm 0 m/S 689 mmHg 94%
    08:00 -4°C° 0 mm 0 m/S 690 mmHg 93%
    09:00 -4°C° 0 mm 0 m/S 691 mmHg 93%
    10:00 -3°C° 0 mm 0 m/S 691 mmHg 92%
    11:00 -2°C° 0 mm 0 m/S 691 mmHg 92%
    12:00 -2°C° 0 mm 0 m/S 691 mmHg 92%
    13:00 -1°C° 0 mm 0 m/S 691 mmHg 92%
    14:00 -1°C° 0 mm 0 m/S 691 mmHg 93%
    15:00 -2°C° 0 mm 0 m/S 691 mmHg 93%
    16:00 -2°C° 0 mm 0 m/S 691 mmHg 94%
    17:00 -3°C° 0 mm 0 m/S 691 mmHg 94%
    18:00 -3°C° 0 mm 0 m/S 692 mmHg 94%
    19:00 -4°C° 0 mm 0 m/S 692 mmHg 94%
    20:00 -4°C° 0 mm 0 m/S 692 mmHg 94%
    21:00 -4°C° 0 mm 0 m/S 692 mmHg 94%
    22:00 -3°C° 0 mm 1 m/S 692 mmHg 93%
    23:00 -3°C° 0 mm 1 m/S 692 mmHg 93%

    20 Dezember, Mittwoch

    Zeit Temperatur Niederschläge Wind Luftdruck Luftfeuchtigkeit
    00:00 -3°C° 0 mm 1 m/S 692 mmHg 93%
    01:00 -3°C° 0 mm 1 m/S 692 mmHg 92%
    02:00 -3°C° 0 mm 1 m/S 692 mmHg 92%
    03:00 -3°C° 0 mm 1 m/S 691 mmHg 91%
    04:00 -3°C° 0 mm 1 m/S 691 mmHg 91%
    05:00 -3°C° 0 mm 1 m/S 691 mmHg 91%
    06:00 -3°C° 0 mm 1 m/S 691 mmHg 90%
    07:00 -4°C° 0 mm 1 m/S 691 mmHg 90%
    08:00 -3°C° 0 mm 1 m/S 692 mmHg 89%
    09:00 -2°C° 0 mm 1 m/S 692 mmHg 88%
    10:00 -1°C° 0 mm 1 m/S 692 mmHg 86%
    11:00 -1°C° 0 mm 1 m/S 692 mmHg 88%
    12:00 0°C° 0 mm 1 m/S 692 mmHg 89%
    13:00 +1°C° 0 mm 1 m/S 692 mmHg 90%
    14:00 +1°C° 0,1 mm 1 m/S 692 mmHg 91%
    15:00 0°C° 0,1 mm 1 m/S 692 mmHg 92%
    16:00 0°C° 0,1 mm 1 m/S 692 mmHg 93%
    17:00 0°C° 0 mm 1 m/S 692 mmHg 93%
    18:00 0°C° 0 mm 1 m/S 692 mmHg 93%
    19:00 0°C° 0 mm 1 m/S 693 mmHg 93%
    20:00 0°C° 0 mm 1 m/S 693 mmHg 94%
    21:00 0°C° 0 mm 1 m/S 693 mmHg 94%
    22:00 0°C° 0 mm 1 m/S 693 mmHg 94%
    23:00 0°C° 0 mm 1 m/S 693 mmHg 94%

    21 Dezember, Donnerstag

    Zeit Temperatur Niederschläge Wind Luftdruck Luftfeuchtigkeit
    00:00 0°C° 0 mm 1 m/S 692 mmHg 94%
    01:00 0°C° 0 mm 1 m/S 692 mmHg 94%
    02:00 0°C° 0 mm 1 m/S 692 mmHg 94%
    03:00 0°C° 0 mm 1 m/S 692 mmHg 94%
    04:00 0°C° 0 mm 1 m/S 692 mmHg 94%
    05:00 0°C° 0 mm 1 m/S 692 mmHg 94%
    06:00 0°C° 0 mm 1 m/S 693 mmHg 95%
    07:00 0°C° 0 mm 1 m/S 693 mmHg 95%
    08:00 +1°C° 0 mm 1 m/S 693 mmHg 95%
    09:00 +1°C° 0 mm 1 m/S 693 mmHg 95%
    10:00 +1°C° 0 mm 1 m/S 693 mmHg 95%
    11:00 +2°C° 0 mm 1 m/S 693 mmHg 96%
    12:00 +2°C° 0 mm 1 m/S 693 mmHg 96%
    13:00 +3°C° 0 mm 1 m/S 692 mmHg 96%
    14:00 +3°C° 0 mm 1 m/S 692 mmHg 96%
    15:00 +2°C° 0 mm 1 m/S 692 mmHg 97%
    16:00 +2°C° 0 mm 1 m/S 692 mmHg 97%
    17:00 +1°C° 0 mm 1 m/S 692 mmHg 97%
    18:00 +1°C° 0 mm 1 m/S 692 mmHg 97%
    19:00 0°C° 0 mm 1 m/S 691 mmHg 96%
    20:00 0°C° 0 mm 1 m/S 691 mmHg 96%
    21:00 +1°C° 0 mm 1 m/S 691 mmHg 96%
    22:00 -1°C° 0 mm 2 m/S 691 mmHg 96%
    23:00 -1°C° 0 mm 2 m/S 691 mmHg 96%
    Mehr zeigen